www.pogodaiklimat.ru
Время
(UTC), дата
13:57 13.11
14:04 13.11
14:12 13.11
14:20 13.11
14:45 13.11
14:53 13.11
15:53 13.11
16:33 13.11
16:53 13.11
17:31 13.11
17:53 13.11
18:53 13.11
19:53 13.11
20:53 13.11
21:53 13.11
22:53 13.11
23:53 13.11
00:12 13.11
00:53 13.11
01:53 13.11
02:53 13.11
03:53 13.11
04:38 13.11
04:53 13.11
05:53 14.11
06:48 14.11
06:53 14.11
07:28 14.11
07:53 14.11
08:53 14.11
09:53 14.11
10:53 14.11
11:53 14.11
12:53 14.11
13:53 14.11
14:53 14.11
15:53 14.11
16:53 14.11
17:53 14.11
18:53 14.11
19:53 14.11
20:53 14.11
21:53 14.11
22:53 14.11
23:53 14.11
00:53 14.11
01:53 14.11
02:53 14.11
Ветер
(напр.,м/с)
Видим. Явления Облачность Т
(С)
Тd
(С)
f
(%)
Тe
(С)
Тes
(С)
Комфортность P
(гПа)
Po
(гПа)
Тmin
(С)
Tmax
(С)
R
(мм)
R24
(мм)
S
(см)
СЗ 4 3 км слабый снег, дымка 10/10 990 м -1.7 -3.9 85 -8 -8 948.9
СЗ 3 2 км слабый снег, дымка 10/10 870 м -1.7 -3.3 89 -7 -7 948.9
СЗ 3 3 км слабый снег, дымка 10/10 930 м -1.7 -3.3 89 -7 -7 948.9
СЗ 4 4 км слабый снег, дымка 10/10 930 м -1.7 -3.3 89 -8 -8 948.9
СЗ 7 5 км слабый снег, дымка 10/10 420 м -1.1 -3.3 85 -9 -9 949.5
СЗ 7 5 км слабый снег, дымка 10/10 390 м -1.7 -3.3 89 -10 -10 1014.1 949.5
СЗ 6 16 км 10/8 1350 м
[средняя]
-1.1 -3.9 81 -8 -8 1014.6 950.1
СЗ 6 16 км 10/8 420 м
[средняя]
-0.6 -3.3 82 -8 -8 950.5
СЗ 6 16 км 10/10 390 м -0.6 -3.3 82 -8 -8 1015.1 950.5 -3.9 -0.6
СЗ 7 16 км 8/8 450 м 0.0 -3.9 75 -7 -7 950.5
СЗ 7 16 км 8/8 570 м 0.0 -3.9 75 -7 -7 1015.0 950.5
СЗ 7 16 км 5/5 630 м +0.6 -4.4 69 -6 -6 1015.5 951.1
СЗ 6 16 км 2/2 660 м +1.1 -5.0 64 -5 -5 1016.1 951.4
СЗ 6 16 км ясно 0.0 -6.7 61 -6 -6 1016.9 952.0
СЗ 4 16 км ясно -2.2 -7.8 65 -9 -8 1017.6 952.7
СЗ 4 16 км ясно -3.9 -8.3 71 -10 -10 1018.7 953.6 -3.9 +1.1
СЗ 4 16 км ясно -5.0 -8.9 74 -12 -12 1019.4 954.3
С 3 16 км 8/8 840 м -4.4 -8.3 74 -10 -10 954.6
С 4 16 км 8/8 840 м -5.6 -8.9 78 -12 -12 1020.1 954.9
С 3 16 км 10/10 750 м -6.1 -8.9 81 -12 -12 1020.7 955.5
С 4 16 км 10/10 750 м -6.1 -8.9 81 -13 -13 1021.7 956.5
С 4 16 км 10/10 630 м -6.7 -9.4 81 -13 -13 1022.3 956.8
С 3 16 км 5/5 600 м -8.3 -10.6 83 -15 -15 957.1
С 3 16 км 2/2 570 м -9.4 -11.7 83 -16 -16 1022.7 957.1 -9.4 -3.9
СЗ 2 16 км ясно -10.6 -12.2 88 -16 -16 1023.0 957.4
СЗ 1 16 км 8/8 540 м -10.0 -12.0 85 -14 -14 958.1
СЗ 2 16 км 8/8 510 м -10.0 -11.7 87 -15 -15 1023.8 958.1
СЗ 3 16 км 5/5 510 м -10.0 -11.7 87 -17 -17 958.4
СЗ 3 16 км ясно -10.6 -11.7 92 -17 -17 1024.1 958.4
З 2 16 км ясно -11.1 -12.2 92 -17 -17 1024.5 958.7
З 2 16 км ясно -12.2 -13.3 91 -18 -18 1025.0 959.0
З 2 16 км ясно -11.7 -12.8 92 -17 -17 1025.8 959.7 -12.2 -9.4
ЮЗ 1 16 км ясно -12.8 -14.4 88 -17 -17 1025.9 959.7
ЮЗ 3 16 км ясно -12.8 -14.4 88 -19 -19 1025.9 959.7
ЮЗ 3 16 км ясно -8.3 -10.6 83 -14 -14 1026.1 960.0
ЮЗ 3 16 км ясно -5.6 -7.8 84 -12 -11 1025.5 959.7
ЮЗ 6 16 км ясно -1.7 -6.7 69 -9 -8 1025.7 960.0
ЮЗ 5 16 км 10/10 1800 м +0.6 -5.6 63 -6 -6 1025.3 959.7 -13.9 +0.6
ЮЗ 6 16 км 10/10 1800 м +2.2 -3.3 67 -4 -4 1024.5 959.0
ЮЗ 7 16 км 10/10 1800 м +3.3 -2.2 67 -3 -3 1023.9 958.4
ЮЗ 6 16 км 8/8 1800 м +4.4 -0.6 70 -1 -1 1023.5 958.1
ЮЗ 6 16 км ясно +4.4 0.0 73 -1 -0 1023.4 958.1
ЮЗ 4 16 км ясно +2.8 0.0 82 -3 -2 1023.5 958.1
Ю 4 16 км ясно +0.6 -1.1 88 -5 -5 1023.7 958.1 +0.6 +5.0
ЮЗ 4 16 км ясно -1.1 -2.2 92 -7 -7 1024.0 958.1
ЮЗ 4 16 км ясно +2.8 +0.6 85 -3 -3 1023.9 958.4
Ю 3 16 км ясно +1.1 -0.6 88 -3 -3 1024.0 958.4
ЮЗ 3 16 км ясно -0.6 -1.7 92 -6 -6 1024.6 959.3
Местоположение метеостанции Watertown Municipal Airport: широта 44.9047 долгота -97.1494 высота над уровнем моря 532 м.
В архиве по умолчанию представлена погода в Уотертауне за последние 1-2 суток. Обновление информации о фактической погоде в базе происходит ежечасно! Архивные данные за месяц целиком и за предыдущие месяцы Вы можете получить, выбрав интересующий диапазон дат из раскрывающегося списка и нажав кнопку "Ввод!".
Внимание! Архив погоды МЕТАР в базе сайта по станциям, не включенным в климатический монитор, хранится не более 60 дней. Нет смысла пытаться выбрать более раннюю дату.
*Определитесь, кто Вы:
Внимание! Время в таблицах - всемирное. Для получения местного времени необходимо прибавить поправку, которая равна ч.
Смотрите также архив погоды в соседних городах и на ближайших метеорологических станциях:
Партнеры нашего сайта:      
Пояснения к столбцам:
  • Ветер - указаны скорость ветра в м/с - средняя за 10 мин, порывы в срок и между сроками (в фигурных скобках) и направление, откуда дует ветер: С - северный,
  • СВ - северо-восточный, В - восточный, ЮВ - юго-восточный, Ю - южный, ЮЗ - юго-западный, З - западный, СЗ - северо-западный.
  • Видимость - горизонтальная дальность видимости в метрах или километрах. При видимости от 1 до 10 км при отсутствии осадков обычно наблюдается дымка, при ухудшении видимости до 1 км и менее - туман. В сухую погоду видимость может ухудшаться дымом, пылью или мглою.
  • Явления - указаны атмосферные явления, наблюдавшиеся в срок или в последний час перед сроком; фигурными скобками обозначены явления, наблюдавшиеся между сроками (за 1-3 часа до срока); квадратными скобками обозначены град или гололедные отложения с указанием их диаметра в мм.
  • Облачность - указаны через наклонную черту общая и нижняя облачность в баллах и высота нижней границы облаков в метрах; квадратными скобками обозначены формы облаков: Ci - перистые, Cs - перисто-слоистые, Cc - перисто-кучевые, Ac - высококучевые, As - высокослоистые, Sc - слоисто-кучевые, Ns - слоисто-дождевые, Cu - кучевые, Cb - кучево-дождевые. Подробнее классификацию облаков см. в Атласе облаков (PDF).
  • T - Температура воздуха - температура, измеренная на высоте 2 м над землей.
  • Td - Температура точки росы - температура, при понижении до которой содержащийся в воздухе водяной пар достигнет насыщения.
  • f - Относительная влажность воздуха - влажноcть воздуха, измеренная на высоте 2 м над землей.
  • Te - Эффективная температура - температура, которую ощущает одетый по сезону человек в тени. Характеристика душности погоды. При расчете учитывается влияние влажности воздуха и скорости ветра на теплоощущения человека.
  • Tes - Эффективная температура на солнце - температура, которую ощущает человек, с поправкой на солнечный нагрев. Характеристика знойности погоды. Зависит от высоты солнца над горизонтом, облачности и скорости ветра. Ночью, в пасмурную погоду, а также при ветре 12 м/с и более поправка равна нулю.
  • P - Атмосферное давление - приведенное к уровню моря атмосферное давление.
  • Po - Атмосферное давление - измеренное на уровне метеостанции атмосферное давление.
  • Tmin - Минимальная температура - минимум температуры воздуха на высоте 2 м над землей.
  • Tmax - Максимальная температура - максимум температуры воздуха на высоте 2 м над землей.
  • R - Количество осадков - Количество выпавших осадков за период времени, мм. При наведении курсора мыши на число - период времени, за который выпало указанное количество осадков.
  • R24 - Количество осадков - Количество выпавших осадков за 24 часа, мм.
  • S - Снежный покров - Высота снежного покрова, см. При наведении курсора мыши на число - состояние снежного покрова и степень покрытия местности в баллах.